Skip Page Navigation
NASA JPL Caltech
NASA Logo - Jet Propulsion Laboratory + View the NASA Portal
+ Center for Near-Earth Object Studies
JPL Home Earth Solar System Stars & Galaxies Technology
JPL Solar System Dynamics
BODIES ORBITS EPHEMERIDES TOOLS PHYSICAL DATA DISCOVERY FAQ SITE MAP
JPL Small-Body Database Browser
Search: [ help ]  
72792 (2001 FD176)
Classification: Main-belt Asteroid          SPK-ID: 2072792
Ephemeris | Orbit Diagram | Orbital Elements | Mission Design | Physical Parameters | Discovery Circumstances ]

[ show orbit diagram ]
Orbital Elements at Epoch 2459200.5 (2020-Dec-17.0) TDB
Reference: JPL 28 (heliocentric ecliptic J2000)
 Element Value Uncertainty (1-sigma)   Units 
e .06793667133857847 3.8785e-08  
a 2.967155555386404 2.1205e-08 au
q 2.765576883609681 1.1253e-07 au
i 10.54514800689594 4.6373e-06 deg
node 107.1079557874248 2.1313e-05 deg
peri 244.3199381232416 4.1139e-05 deg
M 144.1595037952131 3.6469e-05 deg
tp 2458452.933764975588
(2018-Nov-30.43376498)
0.00018742 TDB
period 1866.847745196836
5.11
2.0012e-05
5.479e-08
d
yr
n .1928384363032468 2.0672e-09 deg/d
Q 3.168734227163128 2.2645e-08 au
  Orbit Determination Parameters
   # obs. used (total)      903  
   data-arc span      8214 days (22.49 yr)  
   first obs. used      1998-09-21  
   last obs. used      2021-03-18  
   planetary ephem.      DE441  
   SB-pert. ephem.      SB441-N16  
   condition code      0  
   norm. resid. RMS      .47333  
   source      ORB  
   producer      Otto Matic  
   solution date      2021-May-04 07:16:10  

Additional Information
 Earth MOID = 1.77562 au 
 Jupiter MOID = 2.16146 au 
 T_jup = 3.235 
[ show covariance matrix ]

Ephemeris | Orbit Diagram | Orbital Elements | Mission Design | Physical Parameters | Discovery Circumstances ]

Physical Parameter Table
Parameter Symbol Value Units Sigma Reference Notes
absolute magnitude H 14.47   n/a MPCxxxxx  
diameter diameter 6.167 km 0.300 urn:nasa:pds:neowise_diameters_albedos::2.0[mainbelt] (http://adsabs.harvard.edu/abs/2011ApJ...741...68M)  
geometric albedo albedo 0.106   0.011 urn:nasa:pds:neowise_diameters_albedos::2.0[mainbelt] (http://adsabs.harvard.edu/abs/2011ApJ...741...68M)  

72792 (2001 FD176)          Discovered 2001-Mar-16 by LINEAR at Socorro
Reference: 20031109/Numbers.arcLast Updated: 2004-04-19

Alternate Designations
 2001 FD176 = 2000 AX254 = 2000 CC146 
Ephemeris | Orbit Diagram | Orbital Elements | Mission Design | Physical Parameters | Discovery Circumstances ]
ABOUT SSD CREDITS/AWARDS PRIVACY/COPYRIGHT GLOSSARY LINKS
FirstGov 2021-Jun-20 01:33 UT
(server date/time)  
NASA Home Page
Site Manager:   Ryan S. Park
Webmaster  Alan B. Chamberlin